Location: Poughquag
(41.6090°N, 73.6820°W)
Time: 12:48:00
(UTC-04:00)

Tiros 1 - Pass Details

Date: 30 May 2020
Orbit: 630 x 664 km, 48.4° (Epoch: 06 July)

Event Time Altitude Azimuth Distance (km) Brightness Sun altitude
Rises 20:01:13 0° 293° (WNW) 2,933 13.7 2.5°
Reaches altitude 10° 20:03:43 10° 284° (WNW) 2,016 11.6 2.1°
Maximum altitude 20:07:51 33° 221° (SW) 1,067 8.5 1.4°
Drops below altitude 10° 20:11:58 10° 157° (SSE) 1,997 9.2 0.7°
Sets 20:14:26 0° 148° (SSE) 2,900 9.9 0.3°
